CST,Max TemperatureF,Mean TemperatureF,Min TemperatureF,Max Dew PointF,MeanDew PointF,Min DewpointF,Max Humidity, Mean Humidity, Min Humidity, Max Sea Level PressureIn, Mean Sea Level PressureIn, Min Sea Level PressureIn, Max VisibilityMiles, Mean VisibilityMiles, Min VisibilityMiles, Max Wind SpeedMPH, Mean Wind SpeedMPH, Max Gust SpeedMPH,PrecipitationIn, CloudCover, Events, WindDirDegrees
2012-12-1,67,56,44,54,50,39,93,75,63,30.10,30.00,29.92,10,9,3,18,10,29,0.00,2,,167
2012-12-2,69,59,49,59,55,47,96,82,61,30.02,29.98,29.91,10,8,2,13,8,18,0.00,1,,200
2012-12-3,74,66,57,63,59,54,96,79,59,29.99,29.91,29.82,10,8,3,21,12,33,0.05,4,Rain,175
2012-12-4,59,50,41,53,42,33,92,72,47,30.30,30.16,29.97,10,10,5,13,7,,0.30,2,Rain,307
2012-12-5,50,41,32,41,35,29,91,78,61,30.41,30.32,30.19,10,10,2,13,5,,0.00,0,,79
2012-12-6,54,46,38,45,41,35,92,76,61,30.09,29.98,29.93,10,10,5,10,6,,0.04,3,Rain,168
2012-12-7,48,46,45,48,46,44,100,96,92,29.95,29.89,29.84,7,2,0,12,4,,0.07,8,Fog-Rain,34
2012-12-8,47,44,40,47,41,38,99,93,84,30.04,29.98,29.86,10,5,0,14,7,17,0.03,8,Fog-Rain,14
2012-12-9,48,41,33,47,41,28,97,92,80,29.98,29.85,29.77,10,5,1,20,11,25,0.03,8,Rain,303
2012-12-10,32,30,27,27,24,22,85,78,71,30.05,29.95,29.88,10,10,10,25,15,30,0.00,8,,283
2012-12-11,40,32,23,26,23,19,87,72,56,30.20,30.10,30.05,10,10,10,14,7,18,0.00,0,,207
2012-12-12,49,39,29,30,26,22,75,61,41,30.32,30.26,30.20,10,10,10,13,7,18,0.00,0,,167
2012-12-13,51,42,33,32,28,26,75,59,41,30.29,30.22,30.14,10,10,10,16,9,24,0.00,0,,175
2012-12-14,56,46,35,38,32,27,78,59,39,30.20,30.11,29.96,10,10,10,15,9,21,0.03,1,Rain,169
2012-12-15,56,50,44,50,46,38,94,84,72,29.95,29.71,29.57,10,9,4,23,11,30,0.45,8,Rain,184
2012-12-16,50,46,41,47,40,36,88,83,78,29.78,29.72,29.67,10,10,7,12,6,,0.00,8,,286
2012-12-17,40,36,33,37,35,32,98,92,85,29.79,29.74,29.69,7,4,0,8,2,,0.28,8,Rain-Snow,312
2012-12-18,56,44,32,42,35,32,97,80,55,29.91,29.74,29.60,10,7,1,22,9,29,0.00,1,,209
2012-12-19,46,38,31,44,36,31,98,92,86,30.03,29.89,29.52,7,4,2,20,6,28,0.06,4,Rain-Thunderstorm,88
2012-12-20,55,40,26,53,37,19,97,89,76,29.90,29.46,29.18,10,6,0,44,21,55,0.13,7,Fog-Rain-Snow-Thunderstorm,240
2012-12-21,32,26,19,19,16,14,79,70,52,30.28,30.16,29.90,10,10,10,31,21,38,0.00,0,,284
2012-12-22,40,28,15,28,20,12,90,71,53,30.30,30.13,29.92,10,10,10,12,4,17,0.00,0,,161
2012-12-23,37,31,25,31,27,23,96,85,75,30.01,29.94,29.89,10,9,3,8,4,,0.00,0,,19
2012-12-24,32,28,23,32,25,16,99,89,72,30.15,29.98,29.84,10,5,2,17,9,21,0.00,8,Snow,312
2012-12-25,30,27,24,25,22,20,91,81,73,30.31,30.20,30.10,10,9,5,20,9,24,0.00,7,,360
2012-12-26,33,30,27,26,25,23,85,80,75,30.17,30.08,30.00,10,10,10,22,15,28,0.00,8,,335
2012-12-27,32,28,24,26,24,21,90,80,68,30.21,30.15,30.09,10,10,10,13,4,,0.00,7,,110
2012-12-28,34,32,30,31,29,26,93,86,81,30.09,29.98,29.91,10,8,5,12,7,,0.00,8,,149
2012-12-29,32,26,21,30,23,17,92,82,69,30.32,30.13,29.91,10,7,2,22,10,29,0.00,5,Snow,295
2012-12-30,44,32,19,28,25,16,87,68,51,30.39,30.28,30.15,10,10,7,16,6,21,0.00,0,,192
2012-12-31,38,30,23,34,28,19,97,83,58,30.17,30.13,30.09,10,7,0,15,9,20,0.03,7,Rain-Snow,244